Location: Lombard
(41.8800°N, 88.0080°W)
Time: 13:16:31
(UTC-06:00)

Transit 4A - Pass Details

Date: 04 December 2023
Orbit: 870 x 973 km, 66.8° (Epoch: 03 March)

Event Time Altitude Azimuth Distance (km) Brightness Sun altitude
Rises 20:31:38 0° 225° (SW) 3,656 11.3 -45.8°
Enters shadow 20:33:38 - 228° (SW) 2,936 10.8 -46.2°
Reaches altitude 10° 20:34:16 10° 230° (SW) 2,712 - -46.3°
Maximum altitude 20:40:26 51° 306° (NW) 1,197 - -47.4°
Drops below altitude 10° 20:46:35 10° 22° (NNE) 2,696 - -48.5°
Sets 20:49:13 0° 27° (NNE) 3,632 - -49.0°
